Location: Augirein
(42.9320°N, 0.9181°E)
Time: 00:41:21
(UTC+00:00)

CZ-2D R/B - Pass Details

Date: 20 June 2021
Orbit: 792 x 845 km, 98.7° (Epoch: 04 August)

Event Time Altitude Azimuth Distance (km) Brightness Sun altitude
Rises 03:14:24 0° 356° (N) 3,303 5.9 -9.7°
Reaches altitude 10° 03:17:53 10° 331° (NNW) 2,366 4.8 -9.3°
Maximum altitude 03:20:24 14° 302° (WNW) 2,106 4.1 -8.9°
Drops below altitude 10° 03:22:56 10° 273° (W) 2,361 4.1 -8.6°
Enters shadow 03:24:36 - 259° (W) 2,750 4.4 -8.4°
